Showing default

OPS 9327 (IDSCS 14), 2654

Orbit data source: Space-Track

OPS 9327 (IDSCS 14), 2654 is a payload satellite owned by USAF SSD (US) in GEO that was launched on Wed, 18 Jan 1967 UTC via a TITAN IIIC launch vehicle from the Air Force Eastern Test Range (AFETR). Payload-class satellites include a variety of spacecraft equipped with specific instruments for various scientific and technological missions. These include communications satellites like Starlink; space stations such as the ISS; scientific satellites like the Hubble; Earth observation satellites from companies like Planet Labs, Umbra, and HawkEye 360; GPS; miniature CubeSats for education and research; and military/defense satellites.

Not visible in the next 10 days
Identifier
2654, 1967-003G
Orbit
GEO
Last TLE update
8 hours ago
Origin
Manufacturer
Philco-Ford WDL
Mission
Non-operational Defense Communications
Bus & Motor
IDCSP, Unknown motor
Mass
45 kg wet, 45 kg dry
Launch date (UTC)
1967-01-18 (58 years ago)
Launch vehicle
TITAN IIIC
Launch site
Air Force Eastern Test Range (AFETR)
Object type
Payload
Rocket body
Debris
Shape & HBR
Ico Poly, 0.9 m
Radar Cross Section
0.926 m², Medium (>0.1 m² and < 1m²)

Expand to show TLE details & history

TLE from 8 hours ago
0 OPS 9327 (IDSCS 14)
1 02654U 67003G   25182.85443657 -.00000103  00000-0  00000-0 0  9998
2 02654   7.4777  50.2958 0058526  41.0760 247.6842  1.07511494135705
Epoch: 2025-07-01T20:30Z
TLE epoch observation values (Epoch: 2025-07-01T20:30:23.319Z)
Latitude
-7.1233°
Longitude
110.85148°
Altitude
33,963.669 km
Speed
3.14 km/s
True Right ascension
22h 34m 22s
True Declination
-7° 06' 57"
Sunlit
Object was in daylight at epoch
Visualization orbit readout
Latitude
6.34537°
Longitude
-119.8356°
Altitude
33,644.206 km
Speed
3.165 km/s
Apparent Right ascension
06h 53m 16s
Apparent Declination
0° 27' 34"
Sunlit
Object is in daylight
Visualization observer readout
Local Sidereal Time
16:11:15
Azimuth
307.259° NW
Elevation
-35.311°
Doppler factor
1
Orbital elements
Apogee altitude
34,108.468 km
Perigee altitude
33,637.322 km
Semi-major axis
40,251.032 km
Eccentricity
0.00585
Inclination
7.4777°
RAAN
50.2958°
Arg. of periapsis
41.076°
True anomaly
Unknown
Mean anomaly
247.6842°
Eccentric anomaly
Unknown
Mean motion
0.26877 °/min
Orbital period
1,339.44 mins
BSTAR
0
Loading historical data...
2654 neighbors
Loading maneuver chart data...
Loading SW <> Apogee altitude chart data...
Loading historical data...
Loading historical data...
Loading historical data...
Loading historical data...
Loading historical data...
Loading historical data...
Loading historical data...

OPS 9327 (IDSCS 14) Visibility

Observer location: undefined°, undefined°

OPS 9327 (IDSCS 14) is likely not visible in the next few days
Span
Click to sort rows by Start time (UTC) header in descending order
Start Az.
Max El. time (UTC)
Max El. Az.
Max El.
End time (UTC)
End Az.
|